﻿_id,日時,平均風速(m/s),平均風向,最大瞬間風速(m/s),最大風速時風向,気温(℃),湿度(%),10分間移動積算雨量(mm),1時間移動積算雨量(mm),日雨量(mm),累計雨量(mm),日射(日積算)(MJ/m2),日照(日積算)(min),現地気圧(hPa),海面気圧(hPa)
1,2021-08-30T00:00:00,0.5,北北東,1,北北東,26.9,85.2,0,0,0,0,17.97,362,1001.9,1015.2
2,2021-08-30T00:01:00,0.4,北,1,北北東,26.9,85.1,0,0,0,0,0,0,1001.9,1015.2
3,2021-08-30T00:02:00,0.4,北,1,北北東,26.8,84.8,0,0,0,0,0,0,1001.9,1015.2
4,2021-08-30T00:03:00,0.4,北,1,北北東,26.7,84.9,0,0,0,0,0,0,1001.9,1015.2
5,2021-08-30T00:04:00,0.3,北北西,0.7,北北東,26.6,85.4,0,0,0,0,0,0,1001.9,1015.2
6,2021-08-30T00:05:00,0.3,北北西,0.7,北北東,26.7,85.7,0,0,0,0,0,0,1001.9,1015.2
7,2021-08-30T00:06:00,0.2,静穏,0.7,北北東,26.7,85.9,0,0,0,0,0,0,1001.9,1015.2
8,2021-08-30T00:07:00,0.2,静穏,0.7,北北東,26.7,85.8,0,0,0,0,0,0,1001.9,1015.2
9,2021-08-30T00:08:00,0.2,静穏,0.8,西,26.6,85.7,0,0,0,0,0,0,1001.9,1015.2
10,2021-08-30T00:09:00,0.3,北西,0.8,西,26.6,86,0,0,0,0,0,0,1001.9,1015.2
11,2021-08-30T00:10:00,0.3,西北西,0.8,西,26.7,86.3,0,0,0,0,0,0,1001.9,1015.2
12,2021-08-30T00:11:00,0.3,西北西,0.8,西,26.6,86.2,0,0,0,0,0,0,1001.8,1015.1
13,2021-08-30T00:12:00,0.3,西北西,0.8,西,26.6,86.2,0,0,0,0,0,0,1001.8,1015.1
14,2021-08-30T00:13:00,0.4,西北西,0.8,西,26.6,86.4,0,0,0,0,0,0,1001.8,1015.1
15,2021-08-30T00:14:00,0.4,西北西,0.8,西,26.5,86.6,0,0,0,0,0,0,1001.8,1015.1
16,2021-08-30T00:15:00,0.4,西北西,0.8,西,26.6,86.7,0,0,0,0,0,0,1001.8,1015.1
17,2021-08-30T00:16:00,0.5,西北西,0.8,西,26.8,86.9,0,0,0,0,0,0,1001.8,1015.1
18,2021-08-30T00:17:00,0.5,西北西,0.8,西,26.8,86.6,0,0,0,0,0,0,1001.8,1015.1
19,2021-08-30T00:18:00,0.5,西北西,0.8,西,26.8,85.9,0,0,0,0,0,0,1001.8,1015.1
20,2021-08-30T00:19:00,0.5,西北西,0.8,西,26.8,85.6,0,0,0,0,0,0,1001.8,1015.1
21,2021-08-30T00:20:00,0.5,西北西,0.8,西,26.7,85.7,0,0,0,0,0,0,1001.8,1015.1
22,2021-08-30T00:21:00,0.4,北西,0.8,西,26.7,85.8,0,0,0,0,0,0,1001.8,1015.1
23,2021-08-30T00:22:00,0.4,北西,0.8,北北西,26.6,85.8,0,0,0,0,0,0,1001.8,1015.1
24,2021-08-30T00:23:00,0.4,北西,0.8,北北西,26.6,86,0,0,0,0,0,0,1001.8,1015.1
25,2021-08-30T00:24:00,0.4,北西,0.8,北北西,26.7,86.3,0,0,0,0,0,0,1001.8,1015.1
26,2021-08-30T00:25:00,0.4,北西,0.8,北北西,26.7,86.5,0,0,0,0,0,0,1001.8,1015.1
27,2021-08-30T00:26:00,0.4,北西,0.8,北北西,26.7,86.1,0,0,0,0,0,0,1001.8,1015.1
28,2021-08-30T00:27:00,0.4,北西,0.8,北北西,26.8,86.1,0,0,0,0,0,0,1001.8,1015.1
29,2021-08-30T00:28:00,0.4,北西,0.8,北北西,26.7,85.9,0,0,0,0,0,0,1001.8,1015.1
30,2021-08-30T00:29:00,0.4,北西,0.9,西,26.6,85.9,0,0,0,0,0,0,1001.8,1015.1
31,2021-08-30T00:30:00,0.4,西北西,0.9,西,26.6,86.1,0,0,0,0,0,0,1001.8,1015.1
32,2021-08-30T00:31:00,0.4,西北西,0.9,西,26.6,86.4,0,0,0,0,0,0,1001.8,1015.1
33,2021-08-30T00:32:00,0.5,西北西,0.9,西,26.7,86.6,0,0,0,0,0,0,1001.8,1015.1
34,2021-08-30T00:33:00,0.4,西北西,0.9,西,26.7,86.4,0,0,0,0,0,0,1001.8,1015.1
35,2021-08-30T00:34:00,0.4,西北西,0.9,西,26.8,86.4,0,0,0,0,0,0,1001.8,1015.1
36,2021-08-30T00:35:00,0.4,西北西,0.9,西,26.8,86.3,0,0,0,0,0,0,1001.8,1015.1
37,2021-08-30T00:36:00,0.4,西北西,0.9,西,26.8,86,0,0,0,0,0,0,1001.8,1015.1
38,2021-08-30T00:37:00,0.4,西北西,0.9,西,26.8,85.9,0,0,0,0,0,0,1001.8,1015.1
39,2021-08-30T00:38:00,0.4,西北西,0.9,西,26.9,85.7,0,0,0,0,0,0,1001.8,1015.1
40,2021-08-30T00:39:00,0.4,西北西,0.8,西,26.9,85.7,0,0,0,0,0,0,1001.8,1015.1
41,2021-08-30T00:40:00,0.4,西北西,1,西北西,26.8,85.4,0,0,0,0,0,0,1001.8,1015.1
42,2021-08-30T00:41:00,0.4,西北西,1,西北西,26.8,85.5,0,0,0,0,0,0,1001.8,1015.1
43,2021-08-30T00:42:00,0.5,西北西,1,西北西,26.7,85.6,0,0,0,0,0,0,1001.8,1015.1
44,2021-08-30T00:43:00,0.5,西北西,1,西北西,26.6,85.8,0,0,0,0,0,0,1001.8,1015.1
45,2021-08-30T00:44:00,0.5,西北西,1,西北西,26.8,86.3,0,0,0,0,0,0,1001.9,1015.2
46,2021-08-30T00:45:00,0.6,西北西,1,西北西,26.8,86.3,0,0,0,0,0,0,1001.9,1015.2
47,2021-08-30T00:46:00,0.6,西,1,西北西,26.8,86.1,0,0,0,0,0,0,1001.9,1015.2
48,2021-08-30T00:47:00,0.6,西,1,西北西,26.7,86,0,0,0,0,0,0,1001.9,1015.2
49,2021-08-30T00:48:00,0.6,西,1,西北西,26.7,86.2,0,0,0,0,0,0,1001.9,1015.2
50,2021-08-30T00:49:00,0.6,西,1,西北西,26.7,86.2,0,0,0,0,0,0,1001.9,1015.2
51,2021-08-30T00:50:00,0.5,西,0.9,西,26.7,86.3,0,0,0,0,0,0,1001.9,1015.2
52,2021-08-30T00:51:00,0.5,西北西,0.9,西,26.7,86.4,0,0,0,0,0,0,1001.9,1015.2
53,2021-08-30T00:52:00,0.4,西北西,0.9,西,26.7,86.3,0,0,0,0,0,0,1001.9,1015.2
54,2021-08-30T00:53:00,0.4,北西,0.9,西,26.8,86.3,0,0,0,0,0,0,1001.9,1015.2
55,2021-08-30T00:54:00,0.3,北西,0.9,西,26.8,86.1,0,0,0,0,0,0,1001.9,1015.2
56,2021-08-30T00:55:00,0.3,北西,0.9,西,26.9,85.8,0,0,0,0,0,0,1001.9,1015.2
57,2021-08-30T00:56:00,0.3,北西,0.9,西北西,26.9,85.7,0,0,0,0,0,0,1001.9,1015.2
58,2021-08-30T00:57:00,0.3,北西,0.9,西北西,26.8,85.5,0,0,0,0,0,0,1001.9,1015.2
59,2021-08-30T00:58:00,0.3,北西,0.9,西北西,26.8,85.4,0,0,0,0,0,0,1001.9,1015.2
60,2021-08-30T00:59:00,0.3,北西,0.9,西北西,26.8,85.6,0,0,0,0,0,0,1001.9,1015.2
61,2021-08-30T01:00:00,0.3,北西,0.9,西北西,26.7,85.6,0,0,0,0,0,0,1001.9,1015.2
62,2021-08-30T01:01:00,0.3,北西,0.9,西北西,26.8,85.9,0,0,0,0,0,0,1001.9,1015.2
63,2021-08-30T01:02:00,0.3,西北西,0.9,西北西,26.8,85.9,0,0,0,0,0,0,1001.9,1015.2
64,2021-08-30T01:03:00,0.3,西北西,0.9,西北西,26.7,85.6,0,0,0,0,0,0,1001.9,1015.2
65,2021-08-30T01:04:00,0.3,西北西,0.9,西北西,26.6,85.8,0,0,0,0,0,0,1001.9,1015.2
66,2021-08-30T01:05:00,0.3,西北西,0.9,西,26.6,86,0,0,0,0,0,0,1001.9,1015.2
67,2021-08-30T01:06:00,0.2,静穏,0.9,西,26.6,86.2,0,0,0,0,0,0,1001.9,1015.2
68,2021-08-30T01:07:00,0.2,静穏,0.9,西,26.5,86,0,0,0,0,0,0,1001.8,1015.1
69,2021-08-30T01:08:00,0.1,静穏,0.7,東,26.5,86.3,0,0,0,0,0,0,1001.8,1015.1
70,2021-08-30T01:09:00,0.1,静穏,0.7,東,26.5,86.5,0,0,0,0,0,0,1001.8,1015.1
71,2021-08-30T01:10:00,0.1,静穏,0.7,東,26.6,86.8,0,0,0,0,0,0,1001.8,1015.1
72,2021-08-30T01:11:00,0.1,静穏,0.7,東,26.5,86.6,0,0,0,0,0,0,1001.8,1015.1
73,2021-08-30T01:12:00,0.1,静穏,0.7,東,26.5,86.7,0,0,0,0,0,0,1001.8,1015.1
74,2021-08-30T01:13:00,0.1,静穏,0.7,東,26.5,86.9,0,0,0,0,0,0,1001.8,1015.1
75,2021-08-30T01:14:00,0.1,静穏,0.7,東,26.5,87.2,0,0,0,0,0,0,1001.9,1015.2
76,2021-08-30T01:15:00,0.1,静穏,0.7,東,26.6,87.3,0,0,0,0,0,0,1001.9,1015.2
77,2021-08-30T01:16:00,0.1,静穏,0.5,北北西,26.8,87.2,0,0,0,0,0,0,1001.9,1015.2
78,2021-08-30T01:17:00,0.1,静穏,0.5,北北西,27,86.6,0,0,0,0,0,0,1001.9,1015.2
79,2021-08-30T01:18:00,0.1,静穏,0.5,北北西,26.7,85.6,0,0,0,0,0,0,1001.9,1015.2
80,2021-08-30T01:19:00,0.1,静穏,0.9,北西,26.7,85.8,0,0,0,0,0,0,1001.9,1015.2
81,2021-08-30T01:20:00,0.2,静穏,0.9,北西,26.8,85.7,0,0,0,0,0,0,1001.9,1015.2
82,2021-08-30T01:21:00,0.2,静穏,0.9,北西,26.8,85.7,0,0,0,0,0,0,1001.9,1015.2
83,2021-08-30T01:22:00,0.3,北北西,1,北西,26.8,85.6,0,0,0,0,0,0,1002,1015.3
84,2021-08-30T01:23:00,0.4,北北西,1,北西,26.8,85.4,0,0,0,0,0,0,1002,1015.3
85,2021-08-30T01:24:00,0.4,北北西,1,北西,26.8,85.3,0,0,0,0,0,0,1002,1015.3
86,2021-08-30T01:25:00,0.5,北北西,1,北西,26.8,85.4,0,0,0,0,0,0,1002,1015.3
87,2021-08-30T01:26:00,0.5,北西,1,北西,26.8,85.4,0,0,0,0,0,0,1002,1015.3
88,2021-08-30T01:27:00,0.6,北西,1,北西,27,85.6,0,0,0,0,0,0,1002,1015.3
89,2021-08-30T01:28:00,0.6,北西,1,北西,26.9,85.4,0,0,0,0,0,0,1002,1015.3
90,2021-08-30T01:29:00,0.6,北西,1,北西,27,85.2,0,0,0,0,0,0,1002,1015.3
91,2021-08-30T01:30:00,0.6,北西,1,北西,26.9,84.9,0,0,0,0,0,0,1002,1015.3
92,2021-08-30T01:31:00,0.5,北西,1,北西,26.8,84.9,0,0,0,0,0,0,1002,1015.3
93,2021-08-30T01:32:00,0.5,北北西,1,北西,26.8,85.1,0,0,0,0,0,0,1002,1015.3
94,2021-08-30T01:33:00,0.4,北北西,1,北西,26.7,85.3,0,0,0,0,0,0,1001.9,1015.2
95,2021-08-30T01:34:00,0.4,北北西,1,北西,26.8,85.4,0,0,0,0,0,0,1001.9,1015.2
96,2021-08-30T01:35:00,0.3,北,1,北西,26.7,85.1,0,0,0,0,0,0,1001.9,1015.2
97,2021-08-30T01:36:00,0.2,静穏,1,北西,26.6,85,0,0,0,0,0,0,1001.9,1015.2
98,2021-08-30T01:37:00,0.2,静穏,0.7,北北西,26.5,85.6,0,0,0,0,0,0,1001.9,1015.2
99,2021-08-30T01:38:00,0.2,静穏,0.7,北,26.5,86,0,0,0,0,0,0,1001.9,1015.2
100,2021-08-30T01:39:00,0.2,静穏,0.8,北北東,26.6,86.3,0,0,0,0,0,0,1001.9,1015.2
101,2021-08-30T01:40:00,0.2,静穏,0.8,北北東,26.7,86.6,0,0,0,0,0,0,1001.9,1015.2
102,2021-08-30T01:41:00,0.3,北北東,0.8,北北東,26.8,86.4,0,0,0,0,0,0,1001.9,1015.2
103,2021-08-30T01:42:00,0.3,北北東,0.8,北北東,27,86.2,0,0,0,0,0,0,1001.9,1015.2
104,2021-08-30T01:43:00,0.3,北北東,0.8,北北東,27,85.5,0,0,0,0,0,0,1001.9,1015.2
105,2021-08-30T01:44:00,0.3,北北東,0.8,北北東,26.8,84.8,0,0,0,0,0,0,1001.9,1015.2
106,2021-08-30T01:45:00,0.3,北,0.8,北北東,26.8,85,0,0,0,0,0,0,1001.9,1015.2
107,2021-08-30T01:46:00,0.3,北,0.8,北北東,26.7,85,0,0,0,0,0,0,1001.9,1015.2
108,2021-08-30T01:47:00,0.3,北,0.8,北北東,26.6,85.2,0,0,0,0,0,0,1001.9,1015.2
109,2021-08-30T01:48:00,0.3,北,0.8,北北東,26.7,85.5,0,0,0,0,0,0,1001.9,1015.2
110,2021-08-30T01:49:00,0.2,静穏,0.8,北,26.7,85.7,0,0,0,0,0,0,1002,1015.3
111,2021-08-30T01:50:00,0.2,静穏,0.8,北,26.7,85.7,0,0,0,0,0,0,1002,1015.3
112,2021-08-30T01:51:00,0.2,静穏,0.7,北西,26.6,85.6,0,0,0,0,0,0,1002,1015.3
113,2021-08-30T01:52:00,0.2,静穏,0.7,北西,26.6,86.1,0,0,0,0,0,0,1002,1015.3
114,2021-08-30T01:53:00,0.2,静穏,0.7,北西,26.7,86.3,0,0,0,0,0,0,1002,1015.3
115,2021-08-30T01:54:00,0.2,静穏,0.7,北西,26.7,86.3,0,0,0,0,0,0,1002,1015.3
116,2021-08-30T01:55:00,0.2,静穏,0.7,北西,26.9,86.2,0,0,0,0,0,0,1001.9,1015.2
117,2021-08-30T01:56:00,0.3,北西,0.9,北北東,26.9,85.7,0,0,0,0,0,0,1001.9,1015.2
118,2021-08-30T01:57:00,0.3,北西,0.9,北北東,26.6,85.2,0,0,0,0,0,0,1001.9,1015.2
119,2021-08-30T01:58:00,0.3,北北西,0.9,北北東,26.4,85.3,0,0,0,0,0,0,1001.9,1015.2
120,2021-08-30T01:59:00,0.3,北北西,0.9,北北東,26.5,86.2,0,0,0,0,0,0,1001.9,1015.2
121,2021-08-30T02:00:00,0.3,北北西,0.9,北北東,26.4,86.7,0,0,0,0,0,0,1001.9,1015.2
122,2021-08-30T02:01:00,0.3,北,0.9,北北東,26.6,87,0,0,0,0,0,0,1001.9,1015.2
123,2021-08-30T02:02:00,0.3,北,0.9,北北東,26.6,86.9,0,0,0,0,0,0,1001.9,1015.2
124,2021-08-30T02:03:00,0.3,北,0.9,北北東,26.7,86.6,0,0,0,0,0,0,1001.9,1015.2
125,2021-08-30T02:04:00,0.3,北,0.9,北北東,26.6,86.2,0,0,0,0,0,0,1001.8,1015.1
126,2021-08-30T02:05:00,0.3,北北東,0.9,北北東,26.7,86.3,0,0,0,0,0,0,1001.8,1015.1
127,2021-08-30T02:06:00,0.3,北北東,0.7,北北東,26.7,86.4,0,0,0,0,0,0,1001.8,1015.1
128,2021-08-30T02:07:00,0.3,北北東,0.7,北北東,26.6,85.8,0,0,0,0,0,0,1001.8,1015.1
129,2021-08-30T02:08:00,0.2,静穏,0.7,東北東,26.6,86.1,0,0,0,0,0,0,1001.8,1015.1
130,2021-08-30T02:09:00,0.2,静穏,0.7,東北東,26.5,86.1,0,0,0,0,0,0,1001.8,1015.1
131,2021-08-30T02:10:00,0.2,静穏,0.7,東北東,26.3,86.3,0,0,0,0,0,0,1001.8,1015.1
132,2021-08-30T02:11:00,0.2,静穏,0.7,東北東,26.2,86.7,0,0,0,0,0,0,1001.8,1015.1
133,2021-08-30T02:12:00,0.2,静穏,0.7,東北東,26.2,87.5,0,0,0,0,0,0,1001.8,1015.1
134,2021-08-30T02:13:00,0.2,静穏,0.7,東北東,26.4,87.9,0,0,0,0,0,0,1001.8,1015.1
135,2021-08-30T02:14:00,0.2,静穏,0.7,東北東,26.4,88,0,0,0,0,0,0,1001.8,1015.1
136,2021-08-30T02:15:00,0.1,静穏,0.7,東北東,26.4,87.8,0,0,0,0,0,0,1001.8,1015.1
137,2021-08-30T02:16:00,0.2,静穏,0.7,東北東,26.4,87.9,0,0,0,0,0,0,1001.8,1015.1
138,2021-08-30T02:17:00,0.2,静穏,0.7,西,26.4,87.7,0,0,0,0,0,0,1001.8,1015.1
139,2021-08-30T02:18:00,0.3,北東,0.9,西北西,26.4,87.7,0,0,0,0,0,0,1001.8,1015.1
140,2021-08-30T02:19:00,0.3,北西,0.9,西北西,26.4,87.7,0,0,0,0,0,0,1001.8,1015.1
141,2021-08-30T02:20:00,0.3,西北西,0.9,西北西,26.3,87.6,0,0,0,0,0,0,1001.8,1015.1
142,2021-08-30T02:21:00,0.3,西北西,0.9,西北西,26.3,87.7,0,0,0,0,0,0,1001.8,1015.1
143,2021-08-30T02:22:00,0.4,西北西,0.9,西北西,26.3,87.8,0,0,0,0,0,0,1001.8,1015.1
144,2021-08-30T02:23:00,0.4,西北西,0.9,西北西,26.2,87.9,0,0,0,0,0,0,1001.8,1015.1
145,2021-08-30T02:24:00,0.4,西,0.9,西北西,26.4,88.2,0,0,0,0,0,0,1001.8,1015.1
146,2021-08-30T02:25:00,0.4,西,0.9,西北西,26.4,88,0,0,0,0,0,0,1001.8,1015.1
147,2021-08-30T02:26:00,0.4,西,0.9,西北西,26.1,87.7,0,0,0,0,0,0,1001.8,1015.1
148,2021-08-30T02:27:00,0.4,西,1.1,西,26.1,87.8,0,0,0,0,0,0,1001.9,1015.2
149,2021-08-30T02:28:00,0.4,西南西,1.1,西,25.9,87.9,0,0,0,0,0,0,1001.9,1015.2
150,2021-08-30T02:29:00,0.4,西南西,1.2,南,25.9,88.9,0,0,0,0,0,0,1001.9,1015.2
151,2021-08-30T02:30:00,0.4,西南西,1.2,南,26,89.2,0,0,0,0,0,0,1001.9,1015.2
152,2021-08-30T02:31:00,0.4,南西,1.2,南,26.1,89.7,0,0,0,0,0,0,1001.9,1015.2
153,2021-08-30T02:32:00,0.4,南西,1.2,南,25.7,89.3,0,0,0,0,0,0,1001.9,1015.2
154,2021-08-30T02:33:00,0.5,南西,1.2,南,25.8,89.9,0,0,0,0,0,0,1001.9,1015.2
155,2021-08-30T02:34:00,0.6,南西,1.3,南南西,25.5,90,0,0,0,0,0,0,1001.9,1015.3
156,2021-08-30T02:35:00,0.7,南西,1.4,南南西,25.4,90.7,0,0,0,0,0,0,1001.9,1015.3
157,2021-08-30T02:36:00,0.7,南南西,1.4,南南西,25.5,91.7,0,0,0,0,0,0,1001.9,1015.3
158,2021-08-30T02:37:00,0.8,南南西,1.4,南南西,25.8,92.6,0,0,0,0,0,0,1001.9,1015.2
159,2021-08-30T02:38:00,0.8,南南西,1.4,南南西,25.9,92.4,0,0,0,0,0,0,1001.9,1015.2
160,2021-08-30T02:39:00,0.7,南南西,1.4,南南西,25.9,91.9,0,0,0,0,0,0,1001.9,1015.2
161,2021-08-30T02:40:00,0.7,南南西,1.4,南南西,26.1,91.8,0,0,0,0,0,0,1001.9,1015.2
162,2021-08-30T02:41:00,0.7,南南西,1.4,南南西,26.1,91,0,0,0,0,0,0,1001.9,1015.2
163,2021-08-30T02:42:00,0.7,南南西,1.4,南南西,26,90.3,0,0,0,0,0,0,1001.9,1015.2
164,2021-08-30T02:43:00,0.7,南南西,1.4,南南西,25.9,89.9,0,0,0,0,0,0,1001.9,1015.2
165,2021-08-30T02:44:00,0.6,南南西,1.4,南南西,25.9,90,0,0,0,0,0,0,1001.9,1015.2
166,2021-08-30T02:45:00,0.5,南西,1.3,南南西,25.7,89.8,0,0,0,0,0,0,1001.9,1015.2
167,2021-08-30T02:46:00,0.5,南西,1,南南西,25.7,90.2,0,0,0,0,0,0,1001.9,1015.2
168,2021-08-30T02:47:00,0.4,南西,0.9,南南西,25.7,90.7,0,0,0,0,0,0,1001.9,1015.2
169,2021-08-30T02:48:00,0.4,南西,0.9,南南西,25.9,91.4,0,0,0,0,0,0,1001.9,1015.2
170,2021-08-30T02:49:00,0.4,南西,0.9,南南西,25.9,91.5,0,0,0,0,0,0,1001.9,1015.2
171,2021-08-30T02:50:00,0.4,南西,0.9,南南西,25.8,91,0,0,0,0,0,0,1001.9,1015.2
172,2021-08-30T02:51:00,0.4,南西,0.9,南南西,25.8,90.8,0,0,0,0,0,0,1002,1015.3
173,2021-08-30T02:52:00,0.4,南西,0.9,南南西,25.8,91,0,0,0,0,0,0,1002,1015.3
174,2021-08-30T02:53:00,0.3,南西,0.9,南南西,25.7,90.7,0,0,0,0,0,0,1002,1015.3
175,2021-08-30T02:54:00,0.3,南西,0.9,南南西,25.7,90.9,0,0,0,0,0,0,1002,1015.3
176,2021-08-30T02:55:00,0.3,南西,0.9,南南西,26,91.8,0,0,0,0,0,0,1001.9,1015.2
177,2021-08-30T02:56:00,0.2,静穏,0.8,南西,26.2,91.4,0,0,0,0,0,0,1001.9,1015.2
178,2021-08-30T02:57:00,0.2,静穏,0.8,南西,26.3,90.8,0,0,0,0,0,0,1001.9,1015.2
179,2021-08-30T02:58:00,0.2,静穏,0.8,南西,26.1,89.9,0,0,0,0,0,0,1001.9,1015.2
180,2021-08-30T02:59:00,0.2,静穏,0.8,南西,26.1,89.6,0,0,0,0,0,0,1001.9,1015.2
181,2021-08-30T03:00:00,0.2,静穏,0.8,南西,26.3,89.7,0,0,0,0,0,0,1001.9,1015.2
182,2021-08-30T03:01:00,0.2,静穏,0.7,南西,26.2,89.1,0,0,0,0,0,0,1001.9,1015.2
183,2021-08-30T03:02:00,0.1,静穏,0.6,南西,26.1,88.6,0,0,0,0,0,0,1002,1015.3
184,2021-08-30T03:03:00,0.2,静穏,0.6,南西,26.1,88.6,0,0,0,0,0,0,1001.9,1015.2
185,2021-08-30T03:04:00,0.2,静穏,0.6,南西,26.2,89.1,0,0,0,0,0,0,1001.9,1015.2
186,2021-08-30T03:05:00,0.2,静穏,0.6,南西,26.3,89.1,0,0,0,0,0,0,1001.9,1015.2
187,2021-08-30T03:06:00,0.2,静穏,0.6,南西,26.2,88.8,0,0,0,0,0,0,1001.9,1015.2
188,2021-08-30T03:07:00,0.2,静穏,0.6,南西,26.2,88.8,0,0,0,0,0,0,1002,1015.3
189,2021-08-30T03:08:00,0.2,静穏,0.6,南西,26.2,88.8,0,0,0,0,0,0,1002,1015.3
190,2021-08-30T03:09:00,0.2,静穏,0.6,南西,26.2,88.7,0,0,0,0,0,0,1002,1015.3
191,2021-08-30T03:10:00,0.2,静穏,0.6,南西,26.2,88.8,0,0,0,0,0,0,1002,1015.3
192,2021-08-30T03:11:00,0.2,静穏,0.5,東北東,26.1,88.6,0,0,0,0,0,0,1002,1015.3
193,2021-08-30T03:12:00,0.2,静穏,0.7,南,26.1,88.5,0,0,0,0,0,0,1001.9,1015.2
194,2021-08-30T03:13:00,0.2,静穏,0.7,南,26,88.6,0,0,0,0,0,0,1001.9,1015.2
195,2021-08-30T03:14:00,0.2,静穏,0.7,南,25.9,88.7,0,0,0,0,0,0,1001.9,1015.2
196,2021-08-30T03:15:00,0.2,静穏,0.7,南,26.1,89.1,0,0,0,0,0,0,1001.9,1015.2
197,2021-08-30T03:16:00,0.2,静穏,0.7,南,26,89.2,0,0,0,0,0,0,1001.9,1015.2
198,2021-08-30T03:17:00,0.2,静穏,0.7,南,25.7,88.7,0,0,0,0,0,0,1001.9,1015.2
199,2021-08-30T03:18:00,0.2,静穏,0.7,南,25.6,89.5,0,0,0,0,0,0,1002,1015.4
200,2021-08-30T03:19:00,0.2,静穏,1.3,南,25.3,89.9,0,0,0,0,0,0,1001.9,1015.3
201,2021-08-30T03:20:00,0.3,南,1.3,南,25.2,90.2,0,0,0,0,0,0,1001.9,1015.3
202,2021-08-30T03:21:00,0.3,南,1.3,南,25.1,91.3,0,0,0,0,0,0,1001.9,1015.3
203,2021-08-30T03:22:00,0.3,南,1.3,南,25,91.8,0,0,0,0,0,0,1001.9,1015.3
204,2021-08-30T03:23:00,0.4,南南西,1.3,南,25,92.5,0,0,0,0,0,0,1001.9,1015.3
205,2021-08-30T03:24:00,0.4,南南西,1.3,南,25.1,93.3,0,0,0,0,0,0,1001.9,1015.3
206,2021-08-30T03:25:00,0.4,南南西,1.3,南,25.1,93.8,0,0,0,0,0,0,1001.9,1015.3
207,2021-08-30T03:26:00,0.5,南西,1.3,南,25.2,94.2,0,0,0,0,0,0,1001.9,1015.3
208,2021-08-30T03:27:00,0.5,南西,1.3,南,25.3,94.6,0,0,0,0,0,0,1001.9,1015.3
209,2021-08-30T03:28:00,0.5,南西,1.3,南,25.3,94.4,0,0,0,0,0,0,1001.9,1015.3
210,2021-08-30T03:29:00,0.4,南西,1.2,南,25.1,93.5,0,0,0,0,0,0,1001.9,1015.3
211,2021-08-30T03:30:00,0.4,南西,1.2,南,25.2,93.8,0,0,0,0,0,0,1001.9,1015.3
212,2021-08-30T03:31:00,0.4,南西,1.2,南,25.4,94.4,0,0,0,0,0,0,1001.9,1015.3
213,2021-08-30T03:32:00,0.4,南西,1.2,南,25.3,94,0,0,0,0,0,0,1001.9,1015.3
214,2021-08-30T03:33:00,0.5,南西,1.4,南南西,25.2,93.4,0,0,0,0,0,0,1001.9,1015.3
215,2021-08-30T03:34:00,0.6,南西,1.4,南南西,25,92.8,0,0,0,0,0,0,1001.9,1015.3
216,2021-08-30T03:35:00,0.6,南西,1.4,南南西,25,93.3,0,0,0,0,0,0,1001.9,1015.3
217,2021-08-30T03:36:00,0.6,南西,1.4,南南西,25.3,94.2,0,0,0,0,0,0,1001.9,1015.3
218,2021-08-30T03:37:00,0.7,南南西,1.4,南南西,25.1,94,0,0,0,0,0,0,1001.9,1015.3
219,2021-08-30T03:38:00,0.7,南南西,1.4,南南西,25,93.6,0,0,0,0,0,0,1001.9,1015.3
220,2021-08-30T03:39:00,0.8,南西,1.4,南南西,25,93.8,0,0,0,0,0,0,1001.9,1015.3
221,2021-08-30T03:40:00,0.9,南西,1.4,南南西,24.8,93.8,0,0,0,0,0,0,1001.9,1015.3
222,2021-08-30T03:41:00,1,南南西,1.5,南西,24.8,94.2,0,0,0,0,0,0,1001.9,1015.3
223,2021-08-30T03:42:00,1,南南西,1.5,南西,24.8,94.5,0,0,0,0,0,0,1001.9,1015.3
224,2021-08-30T03:43:00,1,南南西,1.5,南西,24.8,95.1,0,0,0,0,0,0,1001.9,1015.3
225,2021-08-30T03:44:00,1,南南西,1.5,南西,24.8,95.3,0,0,0,0,0,0,1001.9,1015.3
226,2021-08-30T03:45:00,1.1,南南西,1.5,南西,25.1,95.7,0,0,0,0,0,0,1001.9,1015.3
227,2021-08-30T03:46:00,1.1,南南西,1.7,南南西,25,95.5,0,0,0,0,0,0,1001.9,1015.3
228,2021-08-30T03:47:00,1.2,南南西,1.8,南南西,25,95.3,0,0,0,0,0,0,1001.9,1015.3
229,2021-08-30T03:48:00,1.3,南南西,2,南南西,25,95.3,0,0,0,0,0,0,1001.9,1015.3
230,2021-08-30T03:49:00,1.3,南南西,2,南南西,25.2,95.3,0,0,0,0,0,0,1001.9,1015.3
231,2021-08-30T03:50:00,1.3,南南西,2,南南西,25.3,95.3,0,0,0,0,0,0,1001.8,1015.2
232,2021-08-30T03:51:00,1.3,南南西,2,南南西,25.4,95,0,0,0,0,0,0,1001.8,1015.2
233,2021-08-30T03:52:00,1.2,南南西,2,南南西,25.4,94.2,0,0,0,0,0,0,1001.8,1015.2
234,2021-08-30T03:53:00,1.2,南南西,2,南南西,25.4,93.9,0,0,0,0,0,0,1001.8,1015.2
235,2021-08-30T03:54:00,1.2,南南西,2,南南西,25.4,93.3,0,0,0,0,0,0,1001.8,1015.2
236,2021-08-30T03:55:00,1.1,南南西,2,南南西,25.5,93.3,0,0,0,0,0,0,1001.9,1015.3
237,2021-08-30T03:56:00,1,南南西,2,南南西,25.4,92.7,0,0,0,0,0,0,1001.9,1015.3
238,2021-08-30T03:57:00,0.9,南南西,2,南南西,25.4,92.6,0,0,0,0,0,0,1001.9,1015.3
239,2021-08-30T03:58:00,0.8,南南西,1.8,南南西,25.5,92.7,0,0,0,0,0,0,1001.9,1015.3
240,2021-08-30T03:59:00,0.7,南西,1.8,南南西,25.5,92.7,0,0,0,0,0,0,1001.8,1015.2
241,2021-08-30T04:00:00,0.8,南南西,1.8,南南西,25.5,92.3,0,0,0,0,0,0,1001.8,1015.2
242,2021-08-30T04:01:00,0.7,南南西,1.4,南南西,25.5,92.2,0,0,0,0,0,0,1001.8,1015.2
243,2021-08-30T04:02:00,0.8,南南西,1.4,南南西,25.4,91.9,0,0,0,0,0,0,1001.8,1015.2
244,2021-08-30T04:03:00,0.8,南南西,1.4,南南西,25.3,91.6,0,0,0,0,0,0,1001.8,1015.2
245,2021-08-30T04:04:00,0.8,南南西,1.4,南南西,25.1,91.8,0,0,0,0,0,0,1001.8,1015.2
246,2021-08-30T04:05:00,0.8,南南西,1.8,南南西,25.1,92.2,0,0,0,0,0,0,1001.8,1015.2
247,2021-08-30T04:06:00,0.8,南南西,1.8,南南西,25.2,93,0,0,0,0,0,0,1001.8,1015.2
248,2021-08-30T04:07:00,0.8,南南西,1.8,南南西,25.1,93.2,0,0,0,0,0,0,1001.8,1015.2
249,2021-08-30T04:08:00,0.8,南南西,1.8,南南西,25.1,93.2,0,0,0,0,0,0,1001.8,1015.2
250,2021-08-30T04:09:00,0.8,南南西,1.8,南南西,25.2,93.6,0,0,0,0,0,0,1001.8,1015.2
251,2021-08-30T04:10:00,0.7,南南西,1.8,南南西,25,92.9,0,0,0,0,0,0,1001.8,1015.2
252,2021-08-30T04:11:00,0.7,南南西,1.8,南南西,24.9,93.3,0,0,0,0,0,0,1001.8,1015.2
253,2021-08-30T04:12:00,0.6,南南西,1.8,南南西,24.8,93.8,0,0,0,0,0,0,1001.8,1015.2
254,2021-08-30T04:13:00,0.5,南南西,1.8,南南西,24.9,94.2,0,0,0,0,0,0,1001.8,1015.2
255,2021-08-30T04:14:00,0.5,南南西,1.8,南南西,24.7,94.4,0,0,0,0,0,0,1001.8,1015.2
256,2021-08-30T04:15:00,0.5,南南西,1.2,南南西,24.7,94.2,0,0,0,0,0,0,1001.8,1015.2
257,2021-08-30T04:16:00,0.6,南南西,1.2,南南西,24.6,94.6,0,0,0,0,0,0,1001.8,1015.2
258,2021-08-30T04:17:00,0.6,南南西,1.2,南南西,24.7,95.3,0,0,0,0,0,0,1001.8,1015.2
259,2021-08-30T04:18:00,0.6,南南西,1.2,南南西,24.7,95.4,0,0,0,0,0,0,1001.8,1015.2
260,2021-08-30T04:19:00,0.7,南南西,1.2,南南西,24.7,95.5,0,0,0,0,0,0,1001.8,1015.2
261,2021-08-30T04:20:00,0.7,南南西,1.2,南南西,24.8,95.8,0,0,0,0,0,0,1001.8,1015.2
262,2021-08-30T04:21:00,0.8,南南西,1.2,南南西,24.7,95.7,0,0,0,0,0,0,1001.8,1015.2
263,2021-08-30T04:22:00,0.8,南南西,1.3,南南西,24.8,95.6,0,0,0,0,0,0,1001.8,1015.2
264,2021-08-30T04:23:00,0.9,南南西,1.3,南南西,24.7,95.6,0,0,0,0,0,0,1001.7,1015.1
265,2021-08-30T04:24:00,0.9,南南西,1.3,南南西,24.6,95.4,0,0,0,0,0,0,1001.7,1015.1
266,2021-08-30T04:25:00,0.9,南南西,1.3,南南西,24.6,95.4,0,0,0,0,0,0,1001.7,1015.1
267,2021-08-30T04:26:00,0.9,南南西,1.3,南南西,24.5,95.6,0,0,0,0,0,0,1001.7,1015.1
268,2021-08-30T04:27:00,0.9,南南西,1.3,南南西,24.6,95.8,0,0,0,0,0,0,1001.7,1015.1
269,2021-08-30T04:28:00,0.8,南南西,1.3,南南西,24.6,95.8,0,0,0,0,0,0,1001.7,1015.1
270,2021-08-30T04:29:00,0.8,南南西,1.4,南南西,24.7,95.9,0,0,0,0,0,0,1001.7,1015.1
271,2021-08-30T04:30:00,0.8,南南西,1.4,南南西,24.6,95.9,0,0,0,0,0,0,1001.8,1015.2
272,2021-08-30T04:31:00,0.8,南南西,1.4,南南西,24.6,95.9,0,0,0,0,0,0,1001.8,1015.2
273,2021-08-30T04:32:00,0.7,南南西,1.4,南南西,24.7,96,0,0,0,0,0,0,1001.8,1015.2
274,2021-08-30T04:33:00,0.6,南南西,1.4,南南西,24.5,95.7,0,0,0,0,0,0,1001.8,1015.2
275,2021-08-30T04:34:00,0.6,南南西,1.4,南南西,24.6,95.8,0,0,0,0,0,0,1001.8,1015.2
276,2021-08-30T04:35:00,0.6,南南西,1.4,南南西,24.4,95.8,0,0,0,0,0,0,1001.8,1015.2
277,2021-08-30T04:36:00,0.6,南南西,1.4,南南西,24.4,95.7,0,0,0,0,0,0,1001.8,1015.2
278,2021-08-30T04:37:00,0.7,南西,1.4,南南西,24.6,96.1,0,0,0,0,0,0,1001.8,1015.2
279,2021-08-30T04:38:00,0.7,南西,1.4,南南西,24.7,96.2,0,0,0,0,0,0,1001.8,1015.2
280,2021-08-30T04:39:00,0.7,南南西,1.4,南,24.7,96.2,0,0,0,0,0,0,1001.8,1015.2
281,2021-08-30T04:40:00,0.7,南南西,1.4,南,24.8,96,0,0,0,0,0,0,1001.9,1015.3
282,2021-08-30T04:41:00,0.7,南南西,1.4,南,24.9,96.1,0,0,0,0,0,0,1001.9,1015.3
283,2021-08-30T04:42:00,0.7,南南西,1.4,南,25.1,96,0,0,0,0,0,0,1001.9,1015.3
284,2021-08-30T04:43:00,0.7,南南西,1.4,南,25.2,95.8,0,0,0,0,0,0,1002,1015.4
285,2021-08-30T04:44:00,0.7,南南西,1.4,南,25.2,95.1,0,0,0,0,0,0,1002,1015.4
286,2021-08-30T04:45:00,0.7,南南西,1.4,南,25.2,94.7,0,0,0,0,0,0,1002,1015.4
287,2021-08-30T04:46:00,0.6,南南西,1.4,南,25,93.5,0,0,0,0,0,0,1002,1015.4
288,2021-08-30T04:47:00,0.5,南西,1.4,南,25,93.5,0,0,0,0,0,0,1002,1015.4
289,2021-08-30T04:48:00,0.5,南西,1.4,南,25.1,93.8,0,0,0,0,0,0,1002,1015.4
290,2021-08-30T04:49:00,0.5,南西,1,西,25.2,93.8,0,0,0,0,0,0,1002,1015.4
291,2021-08-30T04:50:00,0.4,南西,1,西,25.1,93.4,0,0,0,0,0,0,1002,1015.4
292,2021-08-30T04:51:00,0.4,西南西,1,西,24.9,92.7,0,0,0,0,0,0,1002.1,1015.5
293,2021-08-30T04:52:00,0.4,西南西,1,西,24.8,92.9,0,0,0,0,0,0,1002.1,1015.5
294,2021-08-30T04:53:00,0.4,西南西,1,西,24.7,93.3,0,0,0,0,0,0,1002.1,1015.5
295,2021-08-30T04:54:00,0.4,西,1,西,24.7,93.9,0,0,0,0,0,0,1002.1,1015.5
296,2021-08-30T04:55:00,0.3,西,1,西,24.7,94.2,0,0,0,0,0,0,1002.1,1015.5
297,2021-08-30T04:56:00,0.4,西,1,西,24.7,94.7,0,0,0,0,0,0,1002.1,1015.5
298,2021-08-30T04:57:00,0.4,西,1,西,24.7,95,0,0,0,0,0,0,1002.1,1015.5
299,2021-08-30T04:58:00,0.4,西北西,1,西,24.7,95.1,0,0,0,0,0,0,1002.1,1015.5
300,2021-08-30T04:59:00,0.3,西北西,0.9,西南西,24.8,95.4,0,0,0,0,0,0,1002.1,1015.5
301,2021-08-30T05:00:00,0.3,西北西,0.8,北東,24.8,95.4,0,0,0,0,0,0,1002.1,1015.5
302,2021-08-30T05:01:00,0.4,北西,0.9,北北東,24.8,95.3,0,0,0,0,0,0,1002.2,1015.6
303,2021-08-30T05:02:00,0.4,北西,0.9,北北東,24.8,95.3,0,0,0,0,0,0,1002.2,1015.6
304,2021-08-30T05:03:00,0.4,北北西,0.9,北北東,24.7,95,0,0,0,0,0,0,1002.2,1015.6
305,2021-08-30T05:04:00,0.5,北北西,0.9,北北東,24.6,94.9,0,0,0,0,0,0,1002.2,1015.6
306,2021-08-30T05:05:00,0.5,北,1,北東,24.6,95.1,0,0,0,0,0,0,1002.2,1015.6
307,2021-08-30T05:06:00,0.5,北,1.1,北北東,24.7,95.4,0,0,0,0,0,0,1002.2,1015.6
308,2021-08-30T05:07:00,0.6,北北東,1.1,北北東,24.7,95.4,0,0,0,0,0,0,1002.1,1015.5
309,2021-08-30T05:08:00,0.6,北北東,1.1,北北東,24.7,95.4,0,0,0,0,0,0,1002.2,1015.6
310,2021-08-30T05:09:00,0.6,北東,1.1,北北東,24.6,95.3,0,0,0,0,0,0,1002.2,1015.6
311,2021-08-30T05:10:00,0.6,北東,1.1,北北東,24.6,95.3,0,0,0,0,0,0,1002.2,1015.6
312,2021-08-30T05:11:00,0.6,北東,1.1,北北東,24.6,95.2,0,0,0,0,0,0,1002.2,1015.6
313,2021-08-30T05:12:00,0.5,北東,1.1,北北東,24.5,94.8,0,0,0,0,0,0,1002.2,1015.6
314,2021-08-30T05:13:00,0.5,北北東,1.1,北北東,24.5,95.2,0,0,0,0,0,0,1002.2,1015.6
315,2021-08-30T05:14:00,0.4,北北東,1.1,北北東,24.6,95.4,0,0,0,0,0,0,1002.2,1015.6
316,2021-08-30T05:15:00,0.3,北北東,1.1,北北東,24.7,95.5,0,0,0,0,0,0,1002.1,1015.5
317,2021-08-30T05:16:00,0.3,北北東,1,北北東,24.7,95.5,0,0,0,0,0,0,1002.2,1015.6
318,2021-08-30T05:17:00,0.2,静穏,1,北北東,24.7,95.4,0,0,0,0,0,0,1002.2,1015.6
319,2021-08-30T05:18:00,0.1,静穏,0.6,北,24.8,95.4,0,0,0,0,0,0,1002.2,1015.6
320,2021-08-30T05:19:00,0.1,静穏,0.5,北北東,25,95.6,0,0,0,0,0,0,1002.2,1015.6
321,2021-08-30T05:20:00,0.1,静穏,0.5,北北東,25.1,95.3,0,0,0,0,0,0,1002.2,1015.6
322,2021-08-30T05:21:00,0.1,静穏,0.5,北北東,25.2,94.7,0,0,0,0,0,0,1002.2,1015.6
323,2021-08-30T05:22:00,0.1,静穏,0.5,北北東,25.3,94.1,0,0,0,0,0,0,1002.2,1015.6
324,2021-08-30T05:23:00,0.1,静穏,0.6,北北東,25.3,93.5,0,0,0,0,0,0,1002.2,1015.6